Find OneWeb SL0570

NORAD ID: 55149 Int'l Des: 2023-004 Owner: ONEWEBN Country: UK Constellation: oneweb operational
別名: ONEWEB-0570 spacetrack, celestrak
LEOCIRCULARPOLARONEWEB_TYPE

現在のビュー

3D地球を読み込み中...

About OneWeb SL0570

OneWeb SL0570 (NORAD 55149) is a oneweb constellation satellite launched Jan 10, 2023 by ONEWEBN of UK. It operates in LEO, CIRCULAR, POLAR, ONEWEB_TYPE orbit with a mass of 148.00 kg.

次回通過

Passes for default location (London). Set your location on the main map for personalized predictions.

高度履歴

Loading altitude history...

軌道要素

1 55149U 23004K 26265.62977772 .00000007 00000-0 -15485-4 0 9996
2 55149 87.9153 316.1012 0002061 110.4394 249.6960 13.18686744182537
Epoch: Sep 22, 2026 • Age: 13 hours

現在のステータス

高度 1199.7 km
遠地点 / 近地点 N/A
速度 7.26 km/s
衛星直下点 63.85°N, 104.57°W
打ち上げ日 Jan 10, 2023
運用期間 3.7 years
タイプ internet

技術仕様

分類 Payload
質量 148.00 kg
乾燥質量 140.00 kg
長さ 1.30 m
直径 1.00 m
スパン 5.00 m
形状 ? Trapezoid+2 pan
製造者 ONEWUS
バスタイプ ARROW
フェーズステータス In Orbit
所有者/国 ONEWEBN/UK

Most Searched